When you browse on this site, cookies collect data to enhance your experience and personalize the content and advertising you see.
Visit our Privacy Policy to learn more. By continuing to use the site, you agree to this use of cookies and data.
  • Em Portugal
  • Lista de países
  • Para 7 dias
  • Temperatura da água
  • Mapas de satélite
  • Mapa do tempo
  • Widgets de tempo
  • user-avatar
    Iniciar Sessão

    Previsão horária em Hirocastra

    Hoje, 16 Dezembro, Domingo

    Tempo Temperatura Precipitação Vento Pressão Humidade
    00:00 0°C° 1.9 mm 4 m/s 647 mmHg 89%
    01:00 +1°C° 0 mm 3 m/s 647 mmHg 91%
    02:00 +1°C° 0.8 mm 3 m/s 647 mmHg 92%
    03:00 0°C° 0.8 mm 4 m/s 647 mmHg 92%
    04:00 0°C° 0.8 mm 4 m/s 647 mmHg 92%
    05:00 0°C° 0.1 mm 4 m/s 647 mmHg 92%
    06:00 -1°C° 0.1 mm 4 m/s 647 mmHg 91%
    07:00 -1°C° 0.1 mm 5 m/s 647 mmHg 91%
    08:00 0°C° 0 mm 5 m/s 648 mmHg 88%
    09:00 0°C° 0 mm 5 m/s 648 mmHg 85%
    10:00 +1°C° 0 mm 5 m/s 648 mmHg 81%
    11:00 +1°C° 0 mm 5 m/s 648 mmHg 78%
    12:00 +1°C° 0 mm 5 m/s 649 mmHg 75%
    13:00 +1°C° 0 mm 5 m/s 649 mmHg 71%
    14:00 0°C° 0 mm 5 m/s 649 mmHg 73%
    15:00 -1°C° 0 mm 5 m/s 649 mmHg 75%
    16:00 -1°C° 0 mm 5 m/s 649 mmHg 76%
    17:00 -2°C° 0 mm 4 m/s 649 mmHg 79%
    18:00 -3°C° 0 mm 4 m/s 649 mmHg 81%
    19:00 -4°C° 0 mm 4 m/s 649 mmHg 84%
    20:00 -4°C° 0 mm 3 m/s 649 mmHg 83%
    21:00 -4°C° 0 mm 3 m/s 650 mmHg 83%
    22:00 -4°C° 0 mm 3 m/s 650 mmHg 82%
    23:00 -3°C° 0 mm 2 m/s 650 mmHg 80%

    Amanhã, 17 Dezembro, Segunda-feira

    Tempo Temperatura Precipitação Vento Pressão Humidade
    00:00 -3°C° 0 mm 2 m/s 650 mmHg 77%
    01:00 -3°C° 0 mm 2 m/s 650 mmHg 75%
    02:00 -2°C° 0 mm 2 m/s 650 mmHg 73%
    03:00 -2°C° 0 mm 2 m/s 650 mmHg 70%
    04:00 0°C° 0 mm 1 m/s 649 mmHg 68%
    05:00 0°C° 0 mm 1 m/s 649 mmHg 66%
    06:00 0°C° 0 mm 1 m/s 649 mmHg 64%
    07:00 0°C° 0 mm 1 m/s 649 mmHg 62%
    08:00 -1°C° 0.1 mm 2 m/s 649 mmHg 61%
    09:00 +1°C° 0.1 mm 2 m/s 649 mmHg 60%
    10:00 0°C° 0.1 mm 3 m/s 650 mmHg 59%
    11:00 0°C° 0.2 mm 3 m/s 649 mmHg 61%
    12:00 -1°C° 0.2 mm 4 m/s 648 mmHg 64%
    13:00 -1°C° 0.2 mm 4 m/s 648 mmHg 67%
    14:00 -1°C° 0.9 mm 4 m/s 647 mmHg 72%
    15:00 -1°C° 0.9 mm 5 m/s 647 mmHg 76%
    16:00 -2°C° 0.9 mm 5 m/s 646 mmHg 81%
    17:00 -2°C° 3.6 mm 4 m/s 646 mmHg 84%
    18:00 -2°C° 3.6 mm 4 m/s 646 mmHg 88%
    19:00 -2°C° 3.6 mm 4 m/s 646 mmHg 91%
    20:00 -2°C° 1.9 mm 4 m/s 646 mmHg 91%
    21:00 -2°C° 1.9 mm 4 m/s 646 mmHg 91%
    22:00 -2°C° 1.9 mm 4 m/s 646 mmHg 91%
    23:00 -1°C° 0.5 mm 3 m/s 646 mmHg 90%

    Depois de amanhã, 18 Dezembro, Terça-feira

    Tempo Temperatura Precipitação Vento Pressão Humidade
    00:00 -1°C° 0.5 mm 3 m/s 646 mmHg 89%
    01:00 -1°C° 0.5 mm 3 m/s 646 mmHg 88%
    02:00 -1°C° 0.5 mm 3 m/s 646 mmHg 88%
    03:00 -1°C° 0.5 mm 3 m/s 646 mmHg 87%
    04:00 -2°C° 0.5 mm 3 m/s 646 mmHg 87%
    05:00 -2°C° 0.2 mm 3 m/s 647 mmHg 87%
    06:00 -2°C° 0.2 mm 3 m/s 647 mmHg 86%
    07:00 -2°C° 0.2 mm 3 m/s 648 mmHg 86%
    08:00 -2°C° 0.1 mm 3 m/s 648 mmHg 83%
    09:00 -1°C° 0.1 mm 3 m/s 649 mmHg 81%
    10:00 -1°C° 0.1 mm 3 m/s 649 mmHg 79%
    11:00 0°C° 0 mm 3 m/s 649 mmHg 78%
    12:00 +1°C° 0 mm 3 m/s 650 mmHg 77%
    13:00 +1°C° 0 mm 3 m/s 650 mmHg 76%
    14:00 0°C° 0 mm 3 m/s 650 mmHg 77%
    15:00 0°C° 0 mm 3 m/s 650 mmHg 79%
    16:00 -1°C° 0 mm 3 m/s 650 mmHg 81%
    17:00 -1°C° 0 mm 3 m/s 651 mmHg 81%
    18:00 -2°C° 0 mm 3 m/s 651 mmHg 82%
    19:00 -4°C° 0 mm 3 m/s 651 mmHg 83%
    20:00 -4°C° 0 mm 3 m/s 652 mmHg 82%
    21:00 -4°C° 0 mm 3 m/s 652 mmHg 82%
    22:00 -4°C° 0 mm 3 m/s 652 mmHg 81%
    23:00 -4°C° 0 mm 3 m/s 652 mmHg 81%

    19 Dezembro, Quarta-feira

    Tempo Temperatura Precipitação Vento Pressão Humidade
    00:00 -4°C° 0 mm 3 m/s 652 mmHg 80%
    01:00 -4°C° 0 mm 2 m/s 652 mmHg 80%
    02:00 -3°C° 0 mm 2 m/s 652 mmHg 79%
    03:00 -3°C° 0 mm 2 m/s 653 mmHg 78%
    04:00 -3°C° 0 mm 2 m/s 653 mmHg 78%
    05:00 -3°C° 0 mm 2 m/s 653 mmHg 77%
    06:00 -3°C° 0 mm 2 m/s 653 mmHg 77%
    07:00 -3°C° 0 mm 2 m/s 653 mmHg 76%
    08:00 -1°C° 0 mm 2 m/s 654 mmHg 74%
    09:00 +2°C° 0 mm 1 m/s 655 mmHg 71%
    10:00 +4°C° 0 mm 1 m/s 655 mmHg 69%
    11:00 +5°C° 0 mm 1 m/s 655 mmHg 68%
    12:00 +5°C° 0 mm 1 m/s 655 mmHg 67%
    13:00 +5°C° 0 mm 2 m/s 655 mmHg 66%
    14:00 +4°C° 0 mm 2 m/s 655 mmHg 69%
    15:00 +3°C° 0 mm 2 m/s 654 mmHg 72%
    16:00 +3°C° 0 mm 1 m/s 654 mmHg 75%
    17:00 +2°C° 0 mm 1 m/s 654 mmHg 76%
    18:00 +1°C° 0 mm 1 m/s 654 mmHg 76%
    19:00 0°C° 0 mm 1 m/s 654 mmHg 77%
    20:00 0°C° 0 mm 1 m/s 654 mmHg 76%
    21:00 0°C° 0 mm 1 m/s 654 mmHg 76%
    22:00 0°C° 0 mm 1 m/s 655 mmHg 75%
    23:00 0°C° 0 mm 1 m/s 655 mmHg 75%

    20 Dezembro, Quinta-feira

    Tempo Temperatura Precipitação Vento Pressão Humidade
    00:00 -1°C° 0 mm 1 m/s 654 mmHg 74%
    01:00 -1°C° 0 mm 1 m/s 654 mmHg 74%
    02:00 -1°C° 0 mm 1 m/s 654 mmHg 73%
    03:00 -3°C° 0 mm 2 m/s 654 mmHg 73%
    04:00 -3°C° 0 mm 2 m/s 654 mmHg 73%
    05:00 -3°C° 0 mm 2 m/s 654 mmHg 72%
    06:00 -3°C° 0 mm 2 m/s 654 mmHg 72%
    07:00 -4°C° 0 mm 3 m/s 654 mmHg 71%
    08:00 -1°C° 0 mm 3 m/s 655 mmHg 70%
    09:00 0°C° 0 mm 3 m/s 655 mmHg 69%
    10:00 +1°C° 0 mm 3 m/s 656 mmHg 68%
    11:00 +1°C° 0 mm 4 m/s 656 mmHg 69%
    12:00 +3°C° 0 mm 4 m/s 655 mmHg 70%
    13:00 +4°C° 0 mm 4 m/s 655 mmHg 72%
    14:00 +3°C° 0.1 mm 4 m/s 655 mmHg 76%
    15:00 +1°C° 0.1 mm 4 m/s 655 mmHg 80%
    16:00 +1°C° 0.1 mm 5 m/s 655 mmHg 83%
    17:00 0°C° 0.2 mm 5 m/s 655 mmHg 85%
    18:00 0°C° 0.2 mm 5 m/s 655 mmHg 86%
    19:00 0°C° 0.2 mm 5 m/s 655 mmHg 87%
    20:00 0°C° 0.6 mm 5 m/s 655 mmHg 86%
    21:00 0°C° 0.6 mm 5 m/s 655 mmHg 86%
    22:00 0°C° 0.6 mm 5 m/s 654 mmHg 86%
    23:00 -1°C° 2 mm 5 m/s 654 mmHg 87%

    21 Dezembro, Sexta-feira

    Tempo Temperatura Precipitação Vento Pressão Humidade
    00:00 -1°C° 2 mm 4 m/s 654 mmHg 89%
    01:00 -1°C° 2 mm 4 m/s 654 mmHg 90%
    02:00 0°C° 2.3 mm 3 m/s 653 mmHg 91%
    03:00 0°C° 2.3 mm 3 m/s 653 mmHg 92%
    04:00 +1°C° 2.3 mm 2 m/s 653 mmHg 93%
    05:00 +1°C° 0.7 mm 2 m/s 653 mmHg 93%
    06:00 +1°C° 0.7 mm 2 m/s 653 mmHg 92%
    07:00 +1°C° 0.7 mm 2 m/s 653 mmHg 92%
    08:00 +2°C° 0 mm 2 m/s 653 mmHg 89%
    09:00 +4°C° 0 mm 1 m/s 654 mmHg 86%
    10:00 +5°C° 0 mm 1 m/s 654 mmHg 83%
    11:00 +5°C° 0.5 mm 1 m/s 654 mmHg 82%
    12:00 +5°C° 0.5 mm 1 m/s 654 mmHg 81%
    13:00 +4°C° 0.5 mm 2 m/s 653 mmHg 80%
    14:00 +4°C° 0.2 mm 2 m/s 653 mmHg 82%
    15:00 +3°C° 0.2 mm 2 m/s 654 mmHg 84%
    16:00 +3°C° 0.2 mm 2 m/s 654 mmHg 86%
    17:00 +2°C° 0 mm 2 m/s 654 mmHg 87%
    18:00 +1°C° 0 mm 2 m/s 654 mmHg 89%
    19:00 +1°C° 0 mm 2 m/s 654 mmHg 90%
    20:00 +1°C° 0 mm 2 m/s 654 mmHg 90%
    21:00 -1°C° 0 mm 2 m/s 654 mmHg 90%
    22:00 -1°C° 0 mm 2 m/s 654 mmHg 90%
    23:00 -1°C° 0 mm 2 m/s 654 mmHg 90%
    Mostrar mais